TimeMST,TemperatureF,Dew PointF,Humidity,Sea Level PressureIn,VisibilityMPH,Wind Direction,Wind SpeedMPH,Gust SpeedMPH,PrecipitationIn,Events,Conditions,WindDirDegrees,DateUTC
12:53 AM,32.0,19.9,61,30.21,10.0,Calm,Calm,-,N/A,,Clear,0,2013-02-02 07:53:00
1:53 AM,30.9,19.9,64,30.22,10.0,Calm,Calm,-,N/A,,Clear,0,2013-02-02 08:53:00
2:53 AM,26.1,15.1,63,30.25,10.0,WSW,11.5,-,N/A,,Clear,250,2013-02-02 09:53:00
3:53 AM,25.0,15.1,66,30.28,10.0,West,11.5,-,N/A,,Clear,270,2013-02-02 10:53:00
4:53 AM,25.0,15.1,66,30.29,10.0,WSW,4.6,-,N/A,,Clear,240,2013-02-02 11:53:00
5:53 AM,24.1,15.1,69,30.30,10.0,WSW,8.1,-,N/A,,Clear,250,2013-02-02 12:53:00
6:53 AM,23.0,14.0,68,30.35,10.0,WSW,5.8,-,N/A,,Clear,250,2013-02-02 13:53:00
7:53 AM,21.9,15.1,75,30.38,10.0,West,5.8,-,N/A,,Clear,270,2013-02-02 14:53:00
8:53 AM,30.0,17.1,59,30.38,10.0,West,4.6,-,N/A,,Clear,280,2013-02-02 15:53:00
9:53 AM,37.0,18.0,46,30.36,10.0,West,6.9,-,N/A,,Clear,260,2013-02-02 16:53:00
10:53 AM,43.0,19.9,40,30.33,10.0,SSW,3.5,-,N/A,,Clear,200,2013-02-02 17:53:00
11:53 AM,50.0,21.0,32,30.27,10.0,SSE,11.5,-,N/A,,Clear,150,2013-02-02 18:53:00
12:53 PM,53.1,18.0,25,30.23,10.0,South,9.2,-,N/A,,Clear,190,2013-02-02 19:53:00
1:53 PM,55.0,16.0,22,30.20,10.0,SSW,10.4,-,N/A,,Clear,210,2013-02-02 20:53:00
2:53 PM,55.9,14.0,19,30.20,10.0,SW,5.8,-,N/A,,Clear,230,2013-02-02 21:53:00
3:53 PM,55.9,12.9,18,30.19,10.0,SSW,3.5,-,N/A,,Clear,210,2013-02-02 22:53:00
4:53 PM,50.0,15.1,25,30.21,10.0,East,6.9,-,N/A,,Clear,80,2013-02-02 23:53:00
5:53 PM,43.0,12.9,30,30.25,10.0,East,8.1,-,N/A,,Clear,80,2013-02-03 00:53:00
6:53 PM,42.1,12.0,29,30.27,10.0,ENE,6.9,-,N/A,,Clear,60,2013-02-03 01:53:00
7:53 PM,37.9,10.9,33,30.30,10.0,NNE,6.9,-,N/A,,Clear,30,2013-02-03 02:53:00
8:53 PM,34.0,12.0,40,30.30,10.0,Calm,Calm,-,N/A,,Clear,0,2013-02-03 03:53:00
9:53 PM,33.1,12.0,42,30.29,10.0,North,6.9,-,N/A,,Clear,350,2013-02-03 04:53:00
10:53 PM,34.0,12.9,42,30.29,10.0,NW,4.6,-,N/A,,Clear,310,2013-02-03 05:53:00
11:53 PM,28.9,14.0,54,30.27,10.0,West,6.9,-,N/A,,Clear,270,2013-02-03 06:53:00